Location: Écuvilly
(49.6505°N, 2.9206°E)
Time: 06:58:58
(UTC+00:00)

Aureole 3 Rocket - Pass Details

Date: 17 November 2025
Orbit: 398 x 1690 km, 82.5° (Epoch: 16 December)

Event Time Altitude Azimuth Distance (km) Brightness Sun altitude
Rises 17:57:36 0° 195° (SSW) 2,323 6.3 -18.3°
Reaches altitude 10° 17:59:34 10° 198° (SSW) 1,446 5.3 -18.7°
Maximum altitude 18:02:34 65° 281° (W) 453 2.5 -19.1°
Enters shadow 18:04:30 22° 360° (N) 1,003 4.1 -19.5°
